When you browse on this site, cookies collect data to enhance your experience and personalize the content and advertising you see.
Visit our Privacy Policy to learn more. By continuing to use the site, you agree to this use of cookies and data.
  • In Slovakia
  • List of Countries
  • For 7 days
  • Water Temperature
  • Satellite Maps
  • Weather Map
  • Weather Widgets
  • user-avatar
    Login

    Hourly Weather Essen

    Today, 19 December, Wednesday

    Time Temperature Precipitation Wind Pressure Humidity
    00:00 +3°C° 0 mm 6 mps 751 mmHg 63%
    01:00 +3°C° 0 mm 6 mps 751 mmHg 65%
    02:00 +4°C° 0 mm 6 mps 751 mmHg 67%
    03:00 +4°C° 0 mm 6 mps 750 mmHg 69%
    04:00 +5°C° 0.1 mm 5 mps 750 mmHg 73%
    05:00 +5°C° 0.1 mm 5 mps 750 mmHg 77%
    06:00 +5°C° 0 mm 4 mps 750 mmHg 85%
    07:00 +5°C° 0 mm 4 mps 751 mmHg 85%
    08:00 +5°C° 0 mm 4 mps 751 mmHg 86%
    09:00 +6°C° 0 mm 4 mps 751 mmHg 86%
    10:00 +6°C° 0 mm 4 mps 751 mmHg 83%
    11:00 +7°C° 0 mm 4 mps 751 mmHg 79%
    12:00 +8°C° 0 mm 4 mps 751 mmHg 76%
    13:00 +8°C° 0 mm 3 mps 751 mmHg 77%
    14:00 +8°C° 0 mm 3 mps 751 mmHg 79%
    15:00 +8°C° 0 mm 2 mps 751 mmHg 81%
    16:00 +7°C° 0 mm 3 mps 751 mmHg 82%
    17:00 +7°C° 0 mm 3 mps 751 mmHg 83%
    18:00 +7°C° 0 mm 3 mps 751 mmHg 84%
    19:00 +7°C° 0 mm 3 mps 751 mmHg 86%
    20:00 +5°C° 0 mm 3 mps 751 mmHg 87%
    21:00 +5°C° 0 mm 3 mps 751 mmHg 89%
    22:00 +4°C° 0 mm 3 mps 751 mmHg 90%
    23:00 +4°C° 0 mm 3 mps 750 mmHg 90%

    Tomorrow, 20 December, Thursday

    Time Temperature Precipitation Wind Pressure Humidity
    00:00 +4°C° 0 mm 3 mps 750 mmHg 90%
    01:00 +5°C° 0.3 mm 3 mps 750 mmHg 89%
    02:00 +5°C° 0.3 mm 4 mps 750 mmHg 89%
    03:00 +5°C° 0.3 mm 4 mps 750 mmHg 88%
    04:00 +5°C° 0.1 mm 4 mps 750 mmHg 88%
    05:00 +5°C° 0.1 mm 4 mps 750 mmHg 88%
    06:00 +5°C° 0.1 mm 4 mps 750 mmHg 89%
    07:00 +5°C° 0.2 mm 4 mps 750 mmHg 87%
    08:00 +5°C° 0.2 mm 4 mps 750 mmHg 86%
    09:00 +5°C° 0.2 mm 5 mps 751 mmHg 84%
    10:00 +6°C° 0.2 mm 5 mps 751 mmHg 83%
    11:00 +6°C° 0.2 mm 5 mps 751 mmHg 81%
    12:00 +7°C° 0.2 mm 5 mps 751 mmHg 80%
    13:00 +7°C° 0 mm 5 mps 751 mmHg 79%
    14:00 +6°C° 0 mm 5 mps 751 mmHg 79%
    15:00 +6°C° 0 mm 5 mps 751 mmHg 79%
    16:00 +6°C° 0.2 mm 5 mps 751 mmHg 79%
    17:00 +6°C° 0.2 mm 5 mps 751 mmHg 80%
    18:00 +5°C° 0.2 mm 6 mps 751 mmHg 80%
    19:00 +5°C° 0.2 mm 6 mps 751 mmHg 80%
    20:00 +5°C° 0.2 mm 6 mps 751 mmHg 80%
    21:00 +5°C° 0.2 mm 6 mps 750 mmHg 79%
    22:00 +5°C° 0.3 mm 6 mps 750 mmHg 80%
    23:00 +5°C° 0.3 mm 6 mps 750 mmHg 80%

    Day after tomorrow, 21 December, Friday

    Time Temperature Precipitation Wind Pressure Humidity
    00:00 +5°C° 0.3 mm 6 mps 750 mmHg 80%
    01:00 +6°C° 0.5 mm 5 mps 749 mmHg 83%
    02:00 +6°C° 0.5 mm 4 mps 749 mmHg 86%
    03:00 +6°C° 0.5 mm 4 mps 748 mmHg 88%
    04:00 +6°C° 1.7 mm 4 mps 747 mmHg 90%
    05:00 +6°C° 1.7 mm 4 mps 747 mmHg 91%
    06:00 +6°C° 1.7 mm 4 mps 746 mmHg 92%
    07:00 +7°C° 2.1 mm 4 mps 745 mmHg 92%
    08:00 +7°C° 2.1 mm 4 mps 744 mmHg 92%
    09:00 +8°C° 2.1 mm 4 mps 743 mmHg 93%
    10:00 +9°C° 1.5 mm 5 mps 743 mmHg 91%
    11:00 +10°C° 1.5 mm 6 mps 742 mmHg 89%
    12:00 +11°C° 1.5 mm 7 mps 741 mmHg 87%
    13:00 +11°C° 0.2 mm 8 mps 742 mmHg 85%
    14:00 +11°C° 0.2 mm 8 mps 742 mmHg 83%
    15:00 +11°C° 0.2 mm 8 mps 742 mmHg 80%
    16:00 +11°C° 0 mm 8 mps 743 mmHg 78%
    17:00 +10°C° 0 mm 8 mps 744 mmHg 75%
    18:00 +9°C° 0 mm 8 mps 745 mmHg 73%
    19:00 +9°C° 0 mm 8 mps 745 mmHg 74%
    20:00 +7°C° 0 mm 8 mps 746 mmHg 75%
    21:00 +8°C° 0 mm 7 mps 746 mmHg 76%
    22:00 +8°C° 0 mm 7 mps 747 mmHg 77%
    23:00 +8°C° 0 mm 7 mps 747 mmHg 79%

    22 December, Saturday

    Time Temperature Precipitation Wind Pressure Humidity
    00:00 +8°C° 0 mm 6 mps 747 mmHg 81%
    01:00 +8°C° 0.4 mm 6 mps 746 mmHg 83%
    02:00 +8°C° 0.4 mm 6 mps 746 mmHg 85%
    03:00 +8°C° 0.4 mm 6 mps 746 mmHg 87%
    04:00 +8°C° 0.3 mm 6 mps 746 mmHg 85%
    05:00 +8°C° 0.3 mm 7 mps 746 mmHg 82%
    06:00 +9°C° 0.3 mm 7 mps 746 mmHg 80%
    07:00 +9°C° 0.6 mm 8 mps 747 mmHg 80%
    08:00 +7°C° 0.6 mm 8 mps 748 mmHg 81%
    09:00 +7°C° 0.6 mm 8 mps 748 mmHg 81%
    10:00 +7°C° 0.5 mm 8 mps 749 mmHg 79%
    11:00 +7°C° 0.5 mm 8 mps 750 mmHg 76%
    12:00 +7°C° 0.5 mm 8 mps 751 mmHg 74%
    13:00 +7°C° 0.1 mm 8 mps 752 mmHg 73%
    14:00 +8°C° 0.1 mm 7 mps 752 mmHg 73%
    15:00 +7°C° 0.1 mm 6 mps 753 mmHg 72%
    16:00 +7°C° 0 mm 5 mps 754 mmHg 76%
    17:00 +6°C° 0 mm 5 mps 754 mmHg 80%
    18:00 +6°C° 0 mm 4 mps 755 mmHg 84%
    19:00 +7°C° 0.1 mm 3 mps 755 mmHg 86%
    20:00 +7°C° 0.1 mm 3 mps 755 mmHg 89%
    21:00 +5°C° 0.1 mm 3 mps 755 mmHg 92%
    22:00 +5°C° 0.1 mm 3 mps 756 mmHg 93%
    23:00 +6°C° 0.1 mm 2 mps 756 mmHg 94%

    23 December, Sunday

    Time Temperature Precipitation Wind Pressure Humidity
    00:00 +6°C° 0.1 mm 2 mps 756 mmHg 95%
    01:00 +6°C° 0 mm 2 mps 756 mmHg 95%
    02:00 +6°C° 0 mm 2 mps 756 mmHg 95%
    03:00 +6°C° 0 mm 2 mps 756 mmHg 95%
    04:00 +6°C° 0 mm 2 mps 757 mmHg 95%
    05:00 +5°C° 0 mm 3 mps 757 mmHg 95%
    06:00 +5°C° 0 mm 3 mps 757 mmHg 95%
    07:00 +5°C° 0 mm 3 mps 757 mmHg 94%
    08:00 +5°C° 0 mm 3 mps 757 mmHg 93%
    09:00 +5°C° 0 mm 3 mps 758 mmHg 93%
    10:00 +7°C° 0 mm 3 mps 758 mmHg 89%
    11:00 +6°C° 0 mm 4 mps 758 mmHg 86%
    12:00 +7°C° 0 mm 4 mps 758 mmHg 82%
    13:00 +7°C° 0 mm 3 mps 758 mmHg 83%
    14:00 +7°C° 0 mm 3 mps 758 mmHg 83%
    15:00 +7°C° 0 mm 3 mps 758 mmHg 84%
    16:00 +6°C° 0 mm 2 mps 759 mmHg 87%
    17:00 +6°C° 0 mm 2 mps 759 mmHg 89%
    18:00 +5°C° 0 mm 2 mps 759 mmHg 92%
    19:00 +5°C° 0 mm 2 mps 759 mmHg 93%
    20:00 +5°C° 0 mm 2 mps 760 mmHg 93%
    21:00 +5°C° 0 mm 2 mps 760 mmHg 94%
    22:00 +5°C° 0 mm 2 mps 760 mmHg 94%
    23:00 +5°C° 0 mm 2 mps 760 mmHg 94%

    24 December, Monday

    Time Temperature Precipitation Wind Pressure Humidity
    00:00 +5°C° 0 mm 2 mps 760 mmHg 94%
    01:00 +5°C° 0 mm 2 mps 761 mmHg 94%
    02:00 +6°C° 0 mm 1 mps 761 mmHg 94%
    03:00 +6°C° 0 mm 1 mps 761 mmHg 95%
    04:00 +5°C° 0 mm 1 mps 761 mmHg 95%
    05:00 +5°C° 0 mm 1 mps 761 mmHg 95%
    06:00 +5°C° 0 mm 1 mps 762 mmHg 96%
    07:00 +5°C° 0 mm 1 mps 762 mmHg 95%
    08:00 +5°C° 0 mm 1 mps 763 mmHg 95%
    09:00 +4°C° 0 mm 0 mps 763 mmHg 94%
    10:00 +5°C° 0 mm 0 mps 763 mmHg 90%
    11:00 +7°C° 0 mm 1 mps 763 mmHg 87%
    12:00 +7°C° 0 mm 1 mps 764 mmHg 83%
    13:00 +6°C° 0 mm 0 mps 764 mmHg 85%
    14:00 +5°C° 0 mm 0 mps 764 mmHg 87%
    15:00 +5°C° 0 mm 0 mps 764 mmHg 89%
    16:00 +5°C° 0 mm 0 mps 764 mmHg 90%
    17:00 +5°C° 0 mm 1 mps 764 mmHg 91%
    18:00 +5°C° 0 mm 1 mps 765 mmHg 92%
    19:00 +4°C° 0 mm 1 mps 765 mmHg 92%
    20:00 +4°C° 0 mm 1 mps 765 mmHg 92%
    21:00 +4°C° 0 mm 1 mps 765 mmHg 92%
    22:00 +4°C° 0 mm 1 mps 765 mmHg 91%
    23:00 +3°C° 0 mm 1 mps 765 mmHg 90%
    Show more